Погода в Борках

Украина / Харьковская область     49°43′05″N   36°03′19″E
темп.,
°C
ветер,
м/с
пор.,
м/с
влажн.,
%
обл.,
%
осадки,
мм/ч
давл.,
гПа
погр.,
м
9 марта, вт
вт923:00−3зсз36830 0.0 1012244
02:00−3зсз479026 0.1 1013432
05:00−3зсз598267 0.6 1013630
08:00−3сз686982 0.7 1015835
11:00−3ссз675798 0.0 10171211
14:00−2сз565399 0.1 10181343
17:00−3сз5759100 0.1 10201215
20:00−4ссз566399 0.1 10221043
10 марта, ср
ср1023:00−5ссз566199 0.1 10231075
02:00−6ссз456195 0.1 1025889
05:00−7ссз346841 0.0 1026658
08:00−6с236135 0.0 1027610
11:00−4с224195 0.0 1027861
14:00−3сз113598 0.0 1026976
17:00−3с113671 0.0 10251008
20:00−3ссв114236 0.0 102677
11 марта, чт
чт1123:00−4ссв12430 0.0 1026126
02:00−4всв24490 0.0 1026212
05:00−5всв24570 0.0 1026174
08:00−5в34570 0.0 1027581
11:00−3всв335030 0.0 10271114
14:00−1св334563 0.0 10271366
17:00−3в5561100 0.0 1027857
20:00−5вюв575290 0.0 1029709
12 марта, пт
пт1223:00−6вюв57444 0.0 1029707
02:00−7вюв46352 0.0 1030541
05:00−8вюв46380 0.0 1031461
08:00−8юв57362 0.0 1031519
11:00−5юв672793 0.0 1030767
14:00−3ююв572397 0.0 1029953
17:00−3ююв682699 0.0 10271036
20:00−3ююв7112797 0.0 1028885
13 марта, сб
сб1323:00−4ю8123098 0.0 1028873
02:00−4ю8133499 0.0 1026675
05:00−4ю71342100 0.0 1026679
08:00−3ю81364100 0.0 1026757
11:000ю8126699 0.0 1025848
14:00+2ююз7106499 0.0 1024916
17:00+1ююз51070100 0.0 1023806
20:000ю41067100 0.0 1023401